Time,TemperatureF,DewpointF,PressureIn,WindDirection,WindDirectionDegrees,WindSpeedMPH,WindSpeedGustMPH,Humidity,HourlyPrecipIn,Conditions,Clouds,dailyrainin,SoftwareType,DateUTC
2013-02-13 00:03:00,26.8,22.3,29.85,WNW,294,0.0,0.0,83,0.00,,SKC,0.00,VWS V14.01,2013-02-13 06:03:00,
2013-02-13 00:08:00,26.8,22.0,29.85,NW,314,0.0,0.0,82,0.00,,SKC,0.00,VWS V14.01,2013-02-13 06:08:00,
2013-02-13 00:13:00,26.6,21.9,29.85,NNW,341,0.0,0.0,82,0.00,,SKC,0.00,VWS V14.01,2013-02-13 06:13:00,
2013-02-13 00:18:00,26.4,21.4,29.85,NNW,341,0.0,0.0,81,0.00,,SKC,0.00,VWS V14.01,2013-02-13 06:18:00,
2013-02-13 00:23:00,26.1,21.0,29.85,NW,306,0.0,0.0,81,0.00,,SKC,0.00,VWS V14.01,2013-02-13 06:23:00,
2013-02-13 00:28:00,26.1,20.8,29.85,WNW,284,0.0,0.0,80,0.00,,SKC,0.00,VWS V14.01,2013-02-13 06:28:00,
2013-02-13 00:33:00,25.9,20.6,29.85,NW,309,0.0,0.0,80,0.00,,SKC,0.00,VWS V14.01,2013-02-13 06:33:00,
2013-02-13 00:38:00,25.9,20.6,29.85,NW,318,0.0,0.0,80,0.00,,SKC,0.00,VWS V14.01,2013-02-13 06:38:00,
2013-02-13 00:43:00,25.5,20.2,29.85,WNW,297,0.0,0.0,80,0.00,,SKC,0.00,VWS V14.01,2013-02-13 06:43:00,
2013-02-13 00:48:00,25.3,19.8,29.85,WNW,297,0.0,0.0,79,0.00,,SKC,0.00,VWS V14.01,2013-02-13 06:48:00,
2013-02-13 00:53:00,24.8,19.5,29.82,WNW,297,0.0,0.0,80,0.00,,SKC,0.00,VWS V14.01,2013-02-13 06:53:00,
2013-02-13 00:59:00,24.4,18.9,29.82,WNW,297,0.0,0.0,79,0.00,,SKC,0.00,VWS V14.01,2013-02-13 06:59:00,
2013-02-13 01:04:00,24.3,18.7,29.82,WNW,297,0.0,0.0,79,0.00,,SKC,0.00,VWS V14.01,2013-02-13 07:04:00,
2013-02-13 01:09:00,23.9,18.4,29.82,WNW,297,0.0,0.0,79,0.00,,SKC,0.00,VWS V14.01,2013-02-13 07:09:00,
2013-02-13 01:14:00,24.1,18.5,29.82,WNW,285,0.0,0.0,79,0.00,,SKC,0.00,VWS V14.01,2013-02-13 07:14:00,
2013-02-13 01:19:00,24.1,18.5,29.82,WNW,285,0.0,0.0,79,0.00,,SKC,0.00,VWS V14.01,2013-02-13 07:19:00,
2013-02-13 01:24:00,24.3,19.0,29.82,WNW,285,0.0,0.0,80,0.00,,SKC,0.00,VWS V14.01,2013-02-13 07:24:00,
2013-02-13 01:29:00,24.3,19.0,29.82,NNW,333,0.0,0.0,80,0.00,,SKC,0.00,VWS V14.01,2013-02-13 07:29:00,
2013-02-13 01:34:00,24.4,19.2,29.82,West,276,0.0,0.0,80,0.00,,SKC,0.00,VWS V14.01,2013-02-13 07:34:00,
2013-02-13 01:39:00,24.6,19.3,29.82,West,278,0.0,0.0,80,0.00,,SKC,0.00,VWS V14.01,2013-02-13 07:39:00,
2013-02-13 01:44:00,24.4,19.2,29.82,West,276,0.0,0.0,80,0.00,,SKC,0.00,VWS V14.01,2013-02-13 07:44:00,
2013-02-13 01:49:00,24.4,19.2,29.82,West,276,0.0,0.0,80,0.00,,SKC,0.00,VWS V14.01,2013-02-13 07:49:00,
2013-02-13 01:54:00,24.3,19.0,29.82,West,276,0.0,0.0,80,0.00,,SKC,0.00,VWS V14.01,2013-02-13 07:54:00,
2013-02-13 01:59:00,24.1,18.8,29.82,West,276,0.0,0.0,80,0.00,,SKC,0.00,VWS V14.01,2013-02-13 07:59:00,
2013-02-13 02:04:00,23.7,18.5,29.82,West,276,0.0,0.0,80,0.00,,SKC,0.00,VWS V14.01,2013-02-13 08:04:00,
2013-02-13 02:09:00,23.7,18.5,29.82,West,276,0.0,0.0,80,0.00,,SKC,0.00,VWS V14.01,2013-02-13 08:09:00,
2013-02-13 02:14:00,23.7,18.5,29.82,West,276,0.0,0.0,80,0.00,,SKC,0.00,VWS V14.01,2013-02-13 08:14:00,
2013-02-13 02:19:00,23.5,18.3,29.82,West,276,0.0,0.0,80,0.00,,SKC,0.00,VWS V14.01,2013-02-13 08:19:00,
2013-02-13 02:24:00,23.5,18.3,29.82,West,276,0.0,0.0,80,0.00,,SKC,0.00,VWS V14.01,2013-02-13 08:24:00,
2013-02-13 02:29:00,23.5,18.3,29.82,West,276,0.0,0.0,80,0.00,,SKC,0.00,VWS V14.01,2013-02-13 08:29:00,
2013-02-13 02:34:00,23.2,17.9,29.82,West,276,0.0,0.0,80,0.00,,SKC,0.00,VWS V14.01,2013-02-13 08:34:00,
2013-02-13 02:39:00,23.0,17.8,29.82,West,276,0.0,0.0,80,0.00,,SKC,0.00,VWS V14.01,2013-02-13 08:39:00,
2013-02-13 02:44:00,22.8,17.6,29.82,West,276,0.0,0.0,80,0.00,,SKC,0.00,VWS V14.01,2013-02-13 08:44:00,
2013-02-13 02:49:00,22.5,17.2,29.79,West,276,0.0,0.0,80,0.00,,SKC,0.00,VWS V14.01,2013-02-13 08:49:00,
2013-02-13 02:54:00,22.5,17.2,29.79,West,276,0.0,0.0,80,0.00,,SKC,0.00,VWS V14.01,2013-02-13 08:54:00,
2013-02-13 02:59:00,22.3,17.1,29.79,West,276,0.0,0.0,80,0.00,,SKC,0.00,VWS V14.01,2013-02-13 08:59:00,
2013-02-13 03:04:00,22.3,17.1,29.79,West,276,0.0,0.0,80,0.00,,SKC,0.00,VWS V14.01,2013-02-13 09:04:00,
2013-02-13 03:09:00,22.1,16.9,29.79,West,276,0.0,0.0,80,0.00,,SKC,0.00,VWS V14.01,2013-02-13 09:09:00,
2013-02-13 03:14:00,22.1,17.2,29.79,West,276,0.0,0.0,81,0.00,,SKC,0.00,VWS V14.01,2013-02-13 09:14:00,
2013-02-13 03:20:00,22.5,17.5,29.79,West,276,0.0,0.0,81,0.00,,SKC,0.00,VWS V14.01,2013-02-13 09:20:00,
2013-02-13 03:25:00,22.8,17.9,29.79,West,276,0.0,0.0,81,0.00,,SKC,0.00,VWS V14.01,2013-02-13 09:25:00,
2013-02-13 03:30:00,22.8,18.2,29.79,West,276,0.0,0.0,82,0.00,,SKC,0.00,VWS V14.01,2013-02-13 09:30:00,
2013-02-13 03:35:00,23.0,18.3,29.79,West,276,0.0,0.0,82,0.00,,SKC,0.00,VWS V14.01,2013-02-13 09:35:00,
2013-02-13 03:40:00,23.2,18.5,29.79,West,276,0.0,0.0,82,0.00,,SKC,0.00,VWS V14.01,2013-02-13 09:40:00,
2013-02-13 03:45:00,23.4,19.0,29.79,West,277,0.0,0.0,83,0.00,,SKC,0.00,VWS V14.01,2013-02-13 09:45:00,
2013-02-13 03:50:00,23.4,19.2,29.79,West,275,0.0,0.0,84,0.00,,SKC,0.00,VWS V14.01,2013-02-13 09:50:00,
2013-02-13 03:55:00,23.4,19.2,29.79,West,275,0.0,0.0,84,0.00,,SKC,0.00,VWS V14.01,2013-02-13 09:55:00,
2013-02-13 04:00:00,23.4,19.2,29.79,West,275,0.0,0.0,84,0.00,,SKC,0.00,VWS V14.01,2013-02-13 10:00:00,
2013-02-13 04:05:00,23.4,19.2,29.79,West,271,0.0,0.0,84,0.00,,SKC,0.00,VWS V14.01,2013-02-13 10:05:00,
2013-02-13 04:10:00,23.4,19.2,29.79,WNW,292,0.0,0.0,84,0.00,,SKC,0.00,VWS V14.01,2013-02-13 10:10:00,
2013-02-13 04:15:00,23.2,19.1,29.79,West,275,0.0,0.0,84,0.00,,SKC,0.00,VWS V14.01,2013-02-13 10:15:00,
2013-02-13 04:20:00,23.0,18.9,29.79,West,275,0.0,0.0,84,0.00,,SKC,0.00,VWS V14.01,2013-02-13 10:20:00,
2013-02-13 04:25:00,23.0,18.9,29.79,West,275,0.0,0.0,84,0.00,,SKC,0.00,VWS V14.01,2013-02-13 10:25:00,
2013-02-13 04:31:00,22.8,18.7,29.79,West,275,0.0,0.0,84,0.00,,SKC,0.00,VWS V14.01,2013-02-13 10:31:00,
2013-02-13 04:36:00,22.6,18.5,29.79,West,275,0.0,0.0,84,0.00,,SKC,0.00,VWS V14.01,2013-02-13 10:36:00,
2013-02-13 04:42:00,22.5,18.4,29.79,West,275,0.0,0.0,84,0.00,,SKC,0.00,VWS V14.01,2013-02-13 10:42:00,
2013-02-13 04:47:00,22.5,18.4,29.79,West,275,0.0,0.0,84,0.00,,SKC,0.00,VWS V14.01,2013-02-13 10:47:00,
2013-02-13 04:52:00,22.3,18.2,29.79,West,275,0.0,0.0,84,0.00,,SKC,0.00,VWS V14.01,2013-02-13 10:52:00,
2013-02-13 04:57:00,22.1,18.0,29.79,West,275,0.0,0.0,84,0.00,,SKC,0.00,VWS V14.01,2013-02-13 10:57:00,
2013-02-13 05:02:00,21.9,17.8,29.79,West,275,0.0,0.0,84,0.00,,SKC,0.00,VWS V14.01,2013-02-13 11:02:00,
2013-02-13 05:07:00,21.9,17.8,29.79,West,275,0.0,0.0,84,0.00,,SKC,0.00,VWS V14.01,2013-02-13 11:07:00,
2013-02-13 05:13:00,21.7,17.4,29.79,West,275,0.0,0.0,83,0.00,,SKC,0.00,VWS V14.01,2013-02-13 11:13:00,
2013-02-13 05:18:00,21.6,17.2,29.79,West,275,0.0,0.0,83,0.00,,SKC,0.00,VWS V14.01,2013-02-13 11:18:00,
2013-02-13 05:24:00,21.6,17.5,29.79,West,275,0.0,0.0,84,0.00,,SKC,0.00,VWS V14.01,2013-02-13 11:24:00,
2013-02-13 05:29:00,21.4,17.0,29.79,West,275,0.0,0.0,83,0.00,,SKC,0.00,VWS V14.01,2013-02-13 11:29:00,
2013-02-13 05:35:00,21.2,17.1,29.79,West,275,0.0,0.0,84,0.00,,SKC,0.00,VWS V14.01,2013-02-13 11:35:00,
2013-02-13 05:40:00,21.2,17.1,29.79,West,275,0.0,0.0,84,0.00,,SKC,0.00,VWS V14.01,2013-02-13 11:40:00,
2013-02-13 05:45:00,21.4,17.0,29.79,West,275,0.0,0.0,83,0.00,,SKC,0.00,VWS V14.01,2013-02-13 11:45:00,
2013-02-13 05:50:00,21.6,17.5,29.79,West,275,0.0,0.0,84,0.00,,SKC,0.00,VWS V14.01,2013-02-13 11:50:00,
2013-02-13 05:55:00,21.6,17.5,29.79,West,275,0.0,0.0,84,0.00,,SKC,0.00,VWS V14.01,2013-02-13 11:55:00,
2013-02-13 06:01:00,21.7,17.7,29.79,West,275,0.0,0.0,84,0.00,,SKC,0.00,VWS V14.01,2013-02-13 12:01:00,
2013-02-13 06:06:00,21.9,17.8,29.79,WNW,288,0.0,0.0,84,0.00,,SKC,0.00,VWS V14.01,2013-02-13 12:06:00,
2013-02-13 06:11:00,21.9,18.1,29.79,WNW,288,0.0,0.0,85,0.00,,SKC,0.00,VWS V14.01,2013-02-13 12:11:00,
2013-02-13 06:16:00,22.1,18.3,29.79,WNW,288,0.0,0.0,85,0.00,,SKC,0.00,VWS V14.01,2013-02-13 12:16:00,
2013-02-13 06:21:00,22.3,18.5,29.79,WNW,288,0.0,0.0,85,0.00,,SKC,0.00,VWS V14.01,2013-02-13 12:21:00,
2013-02-13 06:26:00,22.6,18.8,29.79,WNW,286,0.0,0.0,85,0.00,,SKC,0.00,VWS V14.01,2013-02-13 12:26:00,
2013-02-13 06:31:00,22.8,19.3,29.79,WNW,286,0.0,0.0,86,0.00,,SKC,0.00,VWS V14.01,2013-02-13 12:31:00,
2013-02-13 06:36:00,23.0,19.5,29.76,West,267,0.0,0.0,86,0.00,,SKC,0.00,VWS V14.01,2013-02-13 12:36:00,
2013-02-13 06:41:00,23.2,19.4,29.76,West,267,0.0,0.0,85,0.00,,SKC,0.00,VWS V14.01,2013-02-13 12:41:00,
2013-02-13 06:46:00,23.2,19.4,29.76,West,267,0.0,0.0,85,0.00,,SKC,0.00,VWS V14.01,2013-02-13 12:46:00,
2013-02-13 06:52:00,22.8,19.0,29.76,West,267,0.0,0.0,85,0.00,,SKC,0.00,VWS V14.01,2013-02-13 12:52:00,
2013-02-13 06:57:00,22.6,18.8,29.76,West,267,0.0,0.0,85,0.00,,SKC,0.00,VWS V14.01,2013-02-13 12:57:00,
2013-02-13 07:02:00,22.3,18.2,29.76,West,267,0.0,0.0,84,0.00,,SKC,0.00,VWS V14.01,2013-02-13 13:02:00,
2013-02-13 07:07:00,21.9,17.8,29.76,West,267,0.0,0.0,84,0.00,,SKC,0.00,VWS V14.01,2013-02-13 13:07:00,
2013-02-13 07:12:00,21.7,17.7,29.76,West,267,0.0,0.0,84,0.00,,SKC,0.00,VWS V14.01,2013-02-13 13:12:00,
2013-02-13 07:17:00,21.7,17.7,29.76,West,267,0.0,0.0,84,0.00,,SKC,0.00,VWS V14.01,2013-02-13 13:17:00,
2013-02-13 07:22:00,21.7,17.7,29.79,West,267,0.0,0.0,84,0.00,,SKC,0.00,VWS V14.01,2013-02-13 13:22:00,
2013-02-13 07:27:00,21.9,17.8,29.79,WNW,293,0.0,0.0,84,0.00,,SKC,0.00,VWS V14.01,2013-02-13 13:27:00,
2013-02-13 07:32:00,21.9,17.8,29.79,WSW,248,0.0,0.0,84,0.00,,SKC,0.00,VWS V14.01,2013-02-13 13:32:00,
2013-02-13 07:37:00,21.9,17.8,29.76,WSW,248,0.0,0.0,84,0.00,,SKC,0.00,VWS V14.01,2013-02-13 13:37:00,
2013-02-13 07:42:00,22.1,18.0,29.76,WSW,248,0.0,0.0,84,0.00,,SKC,0.00,VWS V14.01,2013-02-13 13:42:00,
2013-02-13 07:47:00,22.5,18.6,29.76,WSW,248,0.0,0.0,85,0.00,,SKC,0.00,VWS V14.01,2013-02-13 13:47:00,
2013-02-13 07:52:00,22.8,19.0,29.76,WSW,248,0.0,0.0,85,0.00,,SKC,0.00,VWS V14.01,2013-02-13 13:52:00,
2013-02-13 07:57:00,23.4,19.5,29.76,WSW,248,0.0,0.0,85,0.00,,SKC,0.00,VWS V14.01,2013-02-13 13:57:00,
2013-02-13 08:02:00,23.5,19.7,29.76,WSW,248,0.0,0.0,85,0.00,,SKC,0.00,VWS V14.01,2013-02-13 14:02:00,
2013-02-13 08:07:00,23.9,20.1,29.76,WSW,247,0.0,0.0,85,0.00,,SKC,0.00,VWS V14.01,2013-02-13 14:07:00,
2013-02-13 08:12:00,24.3,20.4,29.76,WSW,239,0.0,0.0,85,0.00,,SKC,0.00,VWS V14.01,2013-02-13 14:12:00,
2013-02-13 08:17:00,24.6,20.5,29.76,WSW,242,0.0,0.0,84,0.00,,SKC,0.00,VWS V14.01,2013-02-13 14:17:00,
2013-02-13 08:22:00,25.0,20.6,29.76,WSW,237,0.0,0.0,83,0.00,,SKC,0.00,VWS V14.01,2013-02-13 14:22:00,
2013-02-13 08:27:00,25.3,20.6,29.76,WSW,252,0.0,0.0,82,0.00,,SKC,0.00,VWS V14.01,2013-02-13 14:27:00,
2013-02-13 08:32:00,25.9,20.9,29.76,WSW,250,0.0,0.0,81,0.00,,SKC,0.00,VWS V14.01,2013-02-13 14:32:00,
2013-02-13 08:37:00,26.6,21.6,29.76,WSW,250,0.0,0.0,81,0.00,,SKC,0.00,VWS V14.01,2013-02-13 14:37:00,
2013-02-13 08:42:00,27.3,21.7,29.76,WSW,249,0.0,0.0,79,0.00,,SKC,0.00,VWS V14.01,2013-02-13 14:42:00,
2013-02-13 08:47:00,28.0,21.8,29.76,WNW,288,0.0,0.0,77,0.00,,SKC,0.00,VWS V14.01,2013-02-13 14:47:00,
2013-02-13 08:52:00,28.2,20.4,29.76,West,263,0.0,0.0,72,0.00,,SKC,0.00,VWS V14.01,2013-02-13 14:52:00,
2013-02-13 08:57:00,28.6,20.0,29.76,West,263,0.0,0.0,70,0.00,,SKC,0.00,VWS V14.01,2013-02-13 14:57:00,
2013-02-13 09:02:00,28.6,20.0,29.76,West,263,0.0,0.0,70,0.00,,SKC,0.00,VWS V14.01,2013-02-13 15:02:00,
2013-02-13 09:07:00,28.8,18.5,29.76,West,272,0.0,0.0,65,0.00,,SKC,0.00,VWS V14.01,2013-02-13 15:07:00,
2013-02-13 09:12:00,29.1,18.8,29.76,West,272,0.0,0.0,65,0.00,,SKC,0.00,VWS V14.01,2013-02-13 15:12:00,
2013-02-13 09:17:00,29.7,19.0,29.76,SW,220,0.0,0.0,64,0.00,,SKC,0.00,VWS V14.01,2013-02-13 15:17:00,
2013-02-13 09:22:00,29.7,18.6,29.76,WSW,253,0.0,0.0,63,0.00,,SKC,0.00,VWS V14.01,2013-02-13 15:22:00,
2013-02-13 09:27:00,29.8,18.8,29.76,WSW,253,0.0,0.0,63,0.00,,SKC,0.00,VWS V14.01,2013-02-13 15:27:00,
2013-02-13 09:32:00,30.2,19.1,29.76,WSW,245,0.0,0.0,63,0.00,,SKC,0.00,VWS V14.01,2013-02-13 15:32:00,
2013-02-13 09:37:00,30.4,18.6,29.76,SW,227,0.0,0.0,61,0.00,,SKC,0.00,VWS V14.01,2013-02-13 15:37:00,
2013-02-13 09:42:00,30.4,17.8,29.76,West,259,0.0,0.0,59,0.00,,SKC,0.00,VWS V14.01,2013-02-13 15:42:00,
2013-02-13 09:47:00,30.7,18.5,29.76,WSW,243,0.0,0.0,60,0.00,,SKC,0.00,VWS V14.01,2013-02-13 15:47:00,
2013-02-13 09:52:00,30.9,18.3,29.76,SSW,213,0.0,0.0,59,0.00,,SKC,0.00,VWS V14.01,2013-02-13 15:52:00,
2013-02-13 09:57:00,30.7,18.1,29.76,West,264,4.8,4.8,59,0.00,,SKC,0.00,VWS V14.01,2013-02-13 15:57:00,
2013-02-13 10:02:00,30.4,17.8,29.76,SW,231,0.0,0.0,59,0.00,,SKC,0.00,VWS V14.01,2013-02-13 16:02:00,
2013-02-13 10:08:00,30.7,18.9,29.76,SW,235,0.0,0.0,61,0.00,,SKC,0.00,VWS V14.01,2013-02-13 16:08:00,
2013-02-13 10:13:00,30.7,18.9,29.76,WSW,251,0.0,0.0,61,0.00,,SKC,0.00,VWS V14.01,2013-02-13 16:13:00,
2013-02-13 10:18:00,31.1,18.9,29.76,WNW,283,0.0,0.0,60,0.00,,SKC,0.00,VWS V14.01,2013-02-13 16:18:00,
2013-02-13 10:23:00,32.0,19.7,29.76,West,261,0.0,6.4,60,0.00,,SKC,0.00,VWS V14.01,2013-02-13 16:23:00,
2013-02-13 10:28:00,33.1,20.3,29.76,SW,231,0.0,0.0,59,0.00,,SKC,0.00,VWS V14.01,2013-02-13 16:28:00,
2013-02-13 10:33:00,33.4,19.0,29.76,WSW,254,0.0,0.0,55,0.00,,SKC,0.00,VWS V14.01,2013-02-13 16:33:00,
2013-02-13 10:38:00,34.0,19.5,29.76,WSW,244,4.0,4.0,55,0.00,,SKC,0.00,VWS V14.01,2013-02-13 16:38:00,
2013-02-13 10:43:00,34.2,19.3,29.76,WSW,243,0.0,0.0,54,0.00,,SKC,0.00,VWS V14.01,2013-02-13 16:43:00,
2013-02-13 10:48:00,34.0,19.1,29.76,SW,234,0.0,0.0,54,0.00,,SKC,0.00,VWS V14.01,2013-02-13 16:48:00,
2013-02-13 10:53:00,34.0,18.7,29.76,West,272,0.0,0.0,53,0.00,,SKC,0.00,VWS V14.01,2013-02-13 16:53:00,
2013-02-13 10:58:00,35.1,20.1,29.76,SW,234,0.0,0.0,54,0.00,,SKC,0.00,VWS V14.01,2013-02-13 16:58:00,
2013-02-13 11:03:00,34.9,19.5,29.76,West,275,0.0,0.0,53,0.00,,SKC,0.00,VWS V14.01,2013-02-13 17:03:00,
2013-02-13 11:08:00,35.4,19.6,29.76,SW,229,0.0,0.0,52,0.00,,SKC,0.00,VWS V14.01,2013-02-13 17:08:00,
2013-02-13 11:13:00,35.2,19.4,29.76,WSW,258,0.0,0.0,52,0.00,,SKC,0.00,VWS V14.01,2013-02-13 17:13:00,
2013-02-13 11:18:00,35.8,19.9,29.76,WSW,249,0.0,0.0,52,0.00,,SKC,0.00,VWS V14.01,2013-02-13 17:18:00,
2013-02-13 11:23:00,35.8,19.4,29.76,WSW,241,9.7,9.7,51,0.00,,SKC,0.00,VWS V14.01,2013-02-13 17:23:00,
2013-02-13 11:28:00,35.4,19.1,29.76,WSW,251,0.0,0.0,51,0.00,,SKC,0.00,VWS V14.01,2013-02-13 17:28:00,
2013-02-13 11:33:00,35.6,19.7,29.76,SW,231,0.0,6.4,52,0.00,,SKC,0.00,VWS V14.01,2013-02-13 17:33:00,
2013-02-13 11:38:00,36.3,20.4,29.76,SW,232,0.0,4.8,52,0.00,,SKC,0.00,VWS V14.01,2013-02-13 17:38:00,
2013-02-13 11:43:00,36.3,19.9,29.76,WSW,253,0.0,0.0,51,0.00,,SKC,0.00,VWS V14.01,2013-02-13 17:43:00,
2013-02-13 11:48:00,36.3,19.9,29.76,WSW,256,7.2,7.2,51,0.00,,SKC,0.00,VWS V14.01,2013-02-13 17:48:00,
2013-02-13 11:53:00,36.7,20.3,29.76,SW,232,0.0,11.3,51,0.00,,SKC,0.00,VWS V14.01,2013-02-13 17:53:00,
2013-02-13 11:58:00,36.9,20.4,29.76,SW,216,0.0,0.0,51,0.00,,SKC,0.00,VWS V14.01,2013-02-13 17:58:00,
2013-02-13 12:03:00,36.9,20.4,29.76,SW,234,4.8,4.8,51,0.00,,SKC,0.00,VWS V14.01,2013-02-13 18:03:00,
2013-02-13 12:08:00,36.0,20.1,29.76,WSW,256,0.0,8.1,52,0.00,,SKC,0.00,VWS V14.01,2013-02-13 18:08:00,
2013-02-13 12:13:00,36.1,20.7,29.76,West,262,5.6,10.5,53,0.00,,SKC,0.00,VWS V14.01,2013-02-13 18:13:00,
2013-02-13 12:18:00,36.9,21.3,29.76,WSW,245,0.0,0.0,53,0.00,,SKC,0.00,VWS V14.01,2013-02-13 18:18:00,
2013-02-13 12:23:00,37.4,20.9,29.73,SW,221,0.0,0.0,51,0.00,,SKC,0.00,VWS V14.01,2013-02-13 18:23:00,
2013-02-13 12:28:00,37.0,20.6,29.73,SW,234,0.0,0.0,51,0.00,,SKC,0.00,VWS V14.01,2013-02-13 18:28:00,
2013-02-13 12:33:00,37.0,20.6,29.73,SW,233,0.0,0.0,51,0.00,,SKC,0.00,VWS V14.01,2013-02-13 18:33:00,
2013-02-13 12:38:00,37.4,20.9,29.73,West,270,0.0,0.0,51,0.00,,SKC,0.00,VWS V14.01,2013-02-13 18:38:00,
2013-02-13 12:43:00,37.8,21.3,29.73,WSW,252,0.0,0.0,51,0.00,,SKC,0.00,VWS V14.01,2013-02-13 18:43:00,
2013-02-13 12:48:00,36.9,20.4,29.73,SW,227,0.0,4.8,51,0.00,,SKC,0.00,VWS V14.01,2013-02-13 18:48:00,
2013-02-13 12:53:00,36.9,20.9,29.73,WSW,244,7.2,7.2,52,0.00,,SKC,0.00,VWS V14.01,2013-02-13 18:53:00,
2013-02-13 12:58:00,37.2,21.2,29.73,SW,229,4.8,9.7,52,0.00,,SKC,0.00,VWS V14.01,2013-02-13 18:58:00,
2013-02-13 13:03:00,37.6,21.1,29.73,WSW,240,5.6,5.6,51,0.00,,SKC,0.00,VWS V14.01,2013-02-13 19:03:00,
2013-02-13 13:08:00,37.9,21.4,29.73,SW,234,7.2,7.2,51,0.00,,SKC,0.00,VWS V14.01,2013-02-13 19:08:00,
2013-02-13 13:13:00,38.5,21.9,29.73,WSW,245,5.6,10.5,51,0.00,,SKC,0.00,VWS V14.01,2013-02-13 19:13:00,
2013-02-13 13:18:00,38.3,21.8,29.73,WSW,250,6.4,7.2,51,0.00,,SKC,0.00,VWS V14.01,2013-02-13 19:18:00,
2013-02-13 13:23:00,38.5,22.9,29.73,SW,224,11.3,14.9,53,0.00,,SKC,0.00,VWS V14.01,2013-02-13 19:23:00,
2013-02-13 13:28:00,38.7,22.6,29.73,WSW,256,6.4,11.3,52,0.00,,SKC,0.00,VWS V14.01,2013-02-13 19:28:00,
2013-02-13 13:33:00,38.7,22.1,29.73,SW,234,10.5,11.3,51,0.00,,SKC,0.00,VWS V14.01,2013-02-13 19:33:00,
2013-02-13 13:38:00,39.0,22.4,29.73,WSW,237,10.5,14.9,51,0.00,,SKC,0.00,VWS V14.01,2013-02-13 19:38:00,
2013-02-13 13:43:00,39.2,22.1,29.73,SSW,211,8.9,8.9,50,0.00,,SKC,0.00,VWS V14.01,2013-02-13 19:43:00,
2013-02-13 13:48:00,39.0,22.4,29.73,SW,221,5.6,9.7,51,0.00,,SKC,0.00,VWS V14.01,2013-02-13 19:48:00,
2013-02-13 13:53:00,39.0,22.4,29.70,SW,234,0.0,8.9,51,0.00,,SKC,0.00,VWS V14.01,2013-02-13 19:53:00,
2013-02-13 13:58:00,39.0,22.4,29.70,West,267,11.3,11.3,51,0.00,,SKC,0.00,VWS V14.01,2013-02-13 19:58:00,
2013-02-13 14:03:00,39.7,22.6,29.70,WSW,243,0.0,0.0,50,0.00,,SKC,0.00,VWS V14.01,2013-02-13 20:03:00,
2013-02-13 14:08:00,39.4,22.3,29.70,WSW,250,8.9,10.5,50,0.00,,SKC,0.00,VWS V14.01,2013-02-13 20:08:00,
2013-02-13 14:13:00,39.2,22.1,29.70,SW,227,7.2,10.5,50,0.00,,SKC,0.00,VWS V14.01,2013-02-13 20:13:00,
2013-02-13 14:18:00,39.4,22.8,29.70,SW,235,0.0,0.0,51,0.00,,SKC,0.00,VWS V14.01,2013-02-13 20:18:00,
2013-02-13 14:23:00,39.6,22.9,29.70,SW,227,6.4,10.5,51,0.00,,SKC,0.00,VWS V14.01,2013-02-13 20:23:00,
2013-02-13 14:28:00,39.4,22.3,29.70,SW,236,7.2,9.7,50,0.00,,SKC,0.00,VWS V14.01,2013-02-13 20:28:00,
2013-02-13 14:33:00,39.6,22.5,29.70,SW,218,4.8,4.8,50,0.00,,SKC,0.00,VWS V14.01,2013-02-13 20:33:00,
2013-02-13 14:38:00,39.9,23.3,29.70,SW,233,10.5,11.3,51,0.00,,SKC,0.00,VWS V14.01,2013-02-13 20:38:00,
2013-02-13 14:44:00,39.7,23.6,29.70,SSW,205,10.5,13.7,52,0.00,,SKC,0.00,VWS V14.01,2013-02-13 20:44:00,
2013-02-13 14:49:00,39.2,22.6,29.70,South,184,8.1,14.9,51,0.00,,SKC,0.00,VWS V14.01,2013-02-13 20:49:00,
2013-02-13 14:54:00,39.2,22.6,29.70,SW,217,4.8,8.9,51,0.00,,SKC,0.00,VWS V14.01,2013-02-13 20:54:00,
2013-02-13 14:59:00,39.2,22.6,29.70,WSW,243,0.0,6.4,51,0.00,,SKC,0.00,VWS V14.01,2013-02-13 20:59:00,
2013-02-13 15:04:00,39.2,23.1,29.70,WSW,241,8.1,12.9,52,0.00,,SKC,0.00,VWS V14.01,2013-02-13 21:04:00,
2013-02-13 15:09:00,39.4,23.7,29.70,SW,214,9.7,9.7,53,0.00,,SKC,0.00,VWS V14.01,2013-02-13 21:09:00,
2013-02-13 15:14:00,39.7,24.0,29.70,SW,224,0.0,0.0,53,0.00,,SKC,0.00,VWS V14.01,2013-02-13 21:14:00,
2013-02-13 15:19:00,39.9,23.7,29.70,SSW,208,0.0,0.0,52,0.00,,SKC,0.00,VWS V14.01,2013-02-13 21:19:00,
2013-02-13 15:24:00,40.1,24.4,29.70,WSW,237,0.0,6.4,53,0.00,,SKC,0.00,VWS V14.01,2013-02-13 21:24:00,
2013-02-13 15:29:00,40.1,23.9,29.70,SSW,196,5.6,5.6,52,0.00,,SKC,0.00,VWS V14.01,2013-02-13 21:29:00,
2013-02-13 15:34:00,40.1,23.9,29.67,SSW,203,10.5,12.1,52,0.00,,SKC,0.00,VWS V14.01,2013-02-13 21:34:00,
2013-02-13 15:39:00,40.3,24.5,29.67,SSW,202,0.0,4.8,53,0.00,,SKC,0.00,VWS V14.01,2013-02-13 21:39:00,
2013-02-13 15:44:00,40.3,24.5,29.67,South,173,0.0,0.0,53,0.00,,SKC,0.00,VWS V14.01,2013-02-13 21:44:00,
2013-02-13 15:49:00,40.5,25.1,29.67,SSE,163,0.0,0.0,54,0.00,,SKC,0.00,VWS V14.01,2013-02-13 21:49:00,
2013-02-13 15:54:00,40.3,25.0,29.67,South,178,7.2,9.7,54,0.00,,SKC,0.00,VWS V14.01,2013-02-13 21:54:00,
2013-02-13 15:59:00,40.5,25.1,29.67,SW,220,5.6,9.7,54,0.00,,SKC,0.00,VWS V14.01,2013-02-13 21:59:00,
2013-02-13 16:04:00,40.6,25.8,29.67,SW,222,4.8,9.7,55,0.00,,SKC,0.00,VWS V14.01,2013-02-13 22:04:00,
2013-02-13 16:09:00,41.0,25.6,29.67,SSW,198,6.4,7.2,54,0.00,,SKC,0.00,VWS V14.01,2013-02-13 22:09:00,
2013-02-13 16:14:00,41.5,26.1,29.67,South,185,5.6,5.6,54,0.00,,SKC,0.00,VWS V14.01,2013-02-13 22:14:00,
2013-02-13 16:19:00,41.9,25.6,29.67,SW,218,14.5,14.9,52,0.00,,SKC,0.00,VWS V14.01,2013-02-13 22:19:00,
2013-02-13 16:24:00,41.4,24.6,29.67,SW,225,4.8,9.7,51,0.00,,SKC,0.00,VWS V14.01,2013-02-13 22:24:00,
2013-02-13 16:29:00,41.0,23.8,29.67,South,190,0.0,0.0,50,0.00,,SKC,0.00,VWS V14.01,2013-02-13 22:29:00,
2013-02-13 16:34:00,41.0,24.3,29.67,WSW,240,4.0,4.8,51,0.00,,SKC,0.00,VWS V14.01,2013-02-13 22:34:00,
2013-02-13 16:39:00,41.0,24.3,29.67,SSW,205,0.0,0.0,51,0.00,,SKC,0.00,VWS V14.01,2013-02-13 22:39:00,
2013-02-13 16:44:00,40.8,24.6,29.67,South,184,4.8,4.8,52,0.00,,SKC,0.00,VWS V14.01,2013-02-13 22:44:00,
2013-02-13 16:49:00,40.5,24.2,29.67,SSW,212,4.8,6.4,52,0.00,,SKC,0.00,VWS V14.01,2013-02-13 22:49:00,
2013-02-13 16:54:00,39.9,23.7,29.67,SSW,194,0.0,0.0,52,0.00,,SKC,0.00,VWS V14.01,2013-02-13 22:54:00,
2013-02-13 16:59:00,39.6,23.9,29.67,South,187,0.0,0.0,53,0.00,,SKC,0.00,VWS V14.01,2013-02-13 22:59:00,
2013-02-13 17:04:00,39.2,24.0,29.67,South,189,0.0,0.0,54,0.00,,SKC,0.00,VWS V14.01,2013-02-13 23:04:00,
2013-02-13 17:09:00,39.0,24.2,29.67,South,187,0.0,0.0,55,0.00,,SKC,0.00,VWS V14.01,2013-02-13 23:09:00,
2013-02-13 17:14:00,38.8,24.1,29.67,South,188,0.0,0.0,55,0.00,,SKC,0.00,VWS V14.01,2013-02-13 23:14:00,
2013-02-13 17:19:00,38.5,24.2,29.67,South,188,0.0,0.0,56,0.00,,SKC,0.00,VWS V14.01,2013-02-13 23:19:00,
2013-02-13 17:24:00,38.3,24.0,29.67,South,188,0.0,0.0,56,0.00,,SKC,0.00,VWS V14.01,2013-02-13 23:24:00,
2013-02-13 17:29:00,38.1,24.7,29.67,SSW,202,0.0,0.0,58,0.00,,SKC,0.00,VWS V14.01,2013-02-13 23:29:00,
2013-02-13 17:34:00,37.9,24.9,29.67,South,182,0.0,0.0,59,0.00,,SKC,0.00,VWS V14.01,2013-02-13 23:34:00,
2013-02-13 17:39:00,37.6,25.0,29.67,South,181,0.0,0.0,60,0.00,,SKC,0.00,VWS V14.01,2013-02-13 23:39:00,
2013-02-13 17:44:00,37.4,25.6,29.67,South,179,0.0,0.0,62,0.00,,SKC,0.00,VWS V14.01,2013-02-13 23:44:00,
2013-02-13 17:49:00,37.2,26.2,29.67,South,189,0.0,0.0,64,0.00,,SKC,0.00,VWS V14.01,2013-02-13 23:49:00,
2013-02-13 17:54:00,37.0,26.4,29.67,South,189,0.0,0.0,65,0.00,,SKC,0.00,VWS V14.01,2013-02-13 23:54:00,
2013-02-13 17:59:00,37.0,26.4,29.67,SSW,202,0.0,0.0,65,0.00,,SKC,0.00,VWS V14.01,2013-02-13 23:59:00,
2013-02-13 18:04:00,36.9,26.6,29.67,South,179,0.0,0.0,66,0.00,,SKC,0.00,VWS V14.01,2013-02-14 00:04:00,
2013-02-13 18:09:00,36.9,26.6,29.67,South,182,0.0,0.0,66,0.00,,SKC,0.00,VWS V14.01,2013-02-14 00:09:00,
2013-02-13 18:14:00,36.9,26.9,29.67,SW,224,0.0,0.0,67,0.00,,SKC,0.00,VWS V14.01,2013-02-14 00:14:00,
2013-02-13 18:19:00,36.9,26.9,29.64,South,170,0.0,0.0,67,0.00,,SKC,0.00,VWS V14.01,2013-02-14 00:19:00,
2013-02-13 18:24:00,36.9,27.3,29.64,SSE,155,0.0,0.0,68,0.00,,SKC,0.00,VWS V14.01,2013-02-14 00:24:00,
2013-02-13 18:29:00,36.9,27.3,29.64,South,186,0.0,0.0,68,0.00,,SKC,0.00,VWS V14.01,2013-02-14 00:29:00,
2013-02-13 18:34:00,37.0,27.8,29.64,SSW,207,0.0,0.0,69,0.00,,SKC,0.00,VWS V14.01,2013-02-14 00:34:00,
2013-02-13 18:39:00,37.0,27.8,29.64,SSE,151,0.0,0.0,69,0.00,,SKC,0.00,VWS V14.01,2013-02-14 00:39:00,
2013-02-13 18:44:00,36.9,27.7,29.64,SE,135,0.0,0.0,69,0.00,,SKC,0.00,VWS V14.01,2013-02-14 00:44:00,
2013-02-13 18:49:00,36.9,27.7,29.64,SSW,206,0.0,0.0,69,0.00,,SKC,0.00,VWS V14.01,2013-02-14 00:49:00,
2013-02-13 18:55:00,37.0,28.2,29.64,SSW,204,0.0,0.0,70,0.00,,SKC,0.00,VWS V14.01,2013-02-14 00:55:00,
2013-02-13 19:00:00,37.2,28.4,29.64,SSE,168,4.0,4.8,70,0.00,,SKC,0.00,VWS V14.01,2013-02-14 01:00:00,
2013-02-13 19:05:00,37.4,28.2,29.64,South,171,0.0,0.0,69,0.00,,SKC,0.00,VWS V14.01,2013-02-14 01:05:00,
2013-02-13 19:10:00,37.6,28.4,29.64,SSE,161,0.0,0.0,69,0.00,,SKC,0.00,VWS V14.01,2013-02-14 01:10:00,
2013-02-13 19:15:00,37.6,28.4,29.64,South,170,6.4,6.4,69,0.00,,SKC,0.00,VWS V14.01,2013-02-14 01:15:00,
2013-02-13 19:20:00,37.4,28.2,29.64,South,181,0.0,0.0,69,0.00,,SKC,0.00,VWS V14.01,2013-02-14 01:20:00,
2013-02-13 19:25:00,37.0,27.8,29.64,South,173,0.0,0.0,69,0.00,,SKC,0.00,VWS V14.01,2013-02-14 01:25:00,
2013-02-13 19:30:00,37.0,27.8,29.64,SSE,165,0.0,0.0,69,0.00,,SKC,0.00,VWS V14.01,2013-02-14 01:30:00,
2013-02-13 19:35:00,36.9,27.7,29.64,South,175,0.0,0.0,69,0.00,,SKC,0.00,VWS V14.01,2013-02-14 01:35:00,
2013-02-13 19:40:00,36.9,28.0,29.64,SSW,206,0.0,0.0,70,0.00,,SKC,0.00,VWS V14.01,2013-02-14 01:40:00,
2013-02-13 19:45:00,36.9,28.0,29.64,SSW,197,0.0,0.0,70,0.00,,SKC,0.00,VWS V14.01,2013-02-14 01:45:00,
2013-02-13 19:50:00,36.9,28.0,29.64,South,172,0.0,0.0,70,0.00,,SKC,0.00,VWS V14.01,2013-02-14 01:50:00,
2013-02-13 19:55:00,36.7,27.8,29.64,SW,217,0.0,0.0,70,0.00,,SKC,0.00,VWS V14.01,2013-02-14 01:55:00,
2013-02-13 20:00:00,36.9,28.4,29.64,WSW,245,0.0,0.0,71,0.00,,SKC,0.00,VWS V14.01,2013-02-14 02:00:00,
2013-02-13 20:05:00,36.9,28.4,29.64,SSE,168,9.7,9.7,71,0.00,,SKC,0.00,VWS V14.01,2013-02-14 02:05:00,
2013-02-13 20:10:00,36.9,28.4,29.64,SW,236,0.0,0.0,71,0.00,,SKC,0.00,VWS V14.01,2013-02-14 02:10:00,
2013-02-13 20:15:00,36.9,28.4,29.64,SW,227,0.0,0.0,71,0.00,,SKC,0.00,VWS V14.01,2013-02-14 02:15:00,
2013-02-13 20:20:00,36.9,28.4,29.61,SW,227,0.0,0.0,71,0.00,,SKC,0.00,VWS V14.01,2013-02-14 02:20:00,
2013-02-13 20:25:00,37.0,28.9,29.61,WSW,240,0.0,0.0,72,0.00,,SKC,0.00,VWS V14.01,2013-02-14 02:25:00,
2013-02-13 20:30:00,37.0,29.2,29.61,WSW,241,0.0,0.0,73,0.00,,SKC,0.00,VWS V14.01,2013-02-14 02:30:00,
2013-02-13 20:35:00,37.0,29.2,29.61,WSW,250,0.0,0.0,73,0.00,,SKC,0.00,VWS V14.01,2013-02-14 02:35:00,
2013-02-13 20:40:00,37.0,29.5,29.61,West,261,0.0,0.0,74,0.00,,SKC,0.00,VWS V14.01,2013-02-14 02:40:00,
2013-02-13 20:45:00,36.9,29.4,29.61,West,264,0.0,0.0,74,0.00,,SKC,0.00,VWS V14.01,2013-02-14 02:45:00,
2013-02-13 20:50:00,36.7,29.2,29.61,West,264,0.0,0.0,74,0.00,,SKC,0.00,VWS V14.01,2013-02-14 02:50:00,
2013-02-13 20:55:00,36.7,29.2,29.61,West,264,0.0,0.0,74,0.00,,SKC,0.00,VWS V14.01,2013-02-14 02:55:00,
2013-02-13 21:00:00,36.7,29.2,29.61,West,264,0.0,0.0,74,0.00,,SKC,0.00,VWS V14.01,2013-02-14 03:00:00,
2013-02-13 21:05:00,36.5,29.0,29.61,West,264,0.0,0.0,74,0.00,,SKC,0.00,VWS V14.01,2013-02-14 03:05:00,
2013-02-13 21:10:00,36.3,28.8,29.61,SSW,205,0.0,0.0,74,0.00,,SKC,0.00,VWS V14.01,2013-02-14 03:10:00,
2013-02-13 21:15:00,36.3,28.8,29.61,SSW,205,0.0,0.0,74,0.00,,SKC,0.00,VWS V14.01,2013-02-14 03:15:00,
2013-02-13 21:20:00,36.1,28.7,29.61,SSW,204,0.0,0.0,74,0.00,,SKC,0.00,VWS V14.01,2013-02-14 03:20:00,
2013-02-13 21:25:00,36.1,28.7,29.61,SSW,202,0.0,0.0,74,0.00,,SKC,0.00,VWS V14.01,2013-02-14 03:25:00,
2013-02-13 21:30:00,36.0,28.5,29.61,South,172,0.0,0.0,74,0.00,,SKC,0.00,VWS V14.01,2013-02-14 03:30:00,
2013-02-13 21:35:00,36.0,28.8,29.61,South,172,0.0,0.0,75,0.00,,SKC,0.00,VWS V14.01,2013-02-14 03:35:00,
2013-02-13 21:40:00,36.0,28.8,29.61,SSW,197,0.0,0.0,75,0.00,,SKC,0.00,VWS V14.01,2013-02-14 03:40:00,
2013-02-13 21:45:00,36.0,28.8,29.61,SW,218,0.0,0.0,75,0.00,,SKC,0.00,VWS V14.01,2013-02-14 03:45:00,
2013-02-13 21:50:00,36.0,28.8,29.58,SW,218,0.0,0.0,75,0.00,,SKC,0.00,VWS V14.01,2013-02-14 03:50:00,
2013-02-13 21:55:00,36.0,29.1,29.58,SW,217,0.0,0.0,76,0.00,,SKC,0.00,VWS V14.01,2013-02-14 03:55:00,
2013-02-13 22:00:00,36.0,29.1,29.58,SW,217,0.0,0.0,76,0.00,,SKC,0.00,VWS V14.01,2013-02-14 04:00:00,
2013-02-13 22:06:00,36.0,29.1,29.58,SW,222,0.0,0.0,76,0.00,,SKC,0.00,VWS V14.01,2013-02-14 04:06:00,
2013-02-13 22:11:00,36.1,29.6,29.58,SW,222,0.0,0.0,77,0.00,,SKC,0.00,VWS V14.01,2013-02-14 04:11:00,
2013-02-13 22:16:00,36.3,29.8,29.58,SSW,199,0.0,0.0,77,0.00,,SKC,0.00,VWS V14.01,2013-02-14 04:16:00,
2013-02-13 22:21:00,36.3,29.8,29.58,SW,223,0.0,0.0,77,0.00,,SKC,0.00,VWS V14.01,2013-02-14 04:21:00,
2013-02-13 22:26:00,36.3,29.8,29.58,SW,231,0.0,0.0,77,0.00,,SKC,0.00,VWS V14.01,2013-02-14 04:26:00,
2013-02-13 22:31:00,36.3,29.8,29.58,WSW,252,0.0,0.0,77,0.00,,SKC,0.00,VWS V14.01,2013-02-14 04:31:00,
2013-02-13 22:36:00,36.3,29.8,29.58,WSW,251,0.0,0.0,77,0.00,,SKC,0.00,VWS V14.01,2013-02-14 04:36:00,
2013-02-13 22:41:00,36.5,29.7,29.58,WSW,238,0.0,0.0,76,0.00,,SKC,0.00,VWS V14.01,2013-02-14 04:41:00,
2013-02-13 22:46:00,36.5,29.3,29.58,WSW,239,0.0,4.8,75,0.00,,SKC,0.00,VWS V14.01,2013-02-14 04:46:00,
2013-02-13 22:51:00,36.7,29.2,29.58,SW,224,0.0,7.2,74,0.00,,SKC,0.00,VWS V14.01,2013-02-14 04:51:00,
2013-02-13 22:56:00,36.7,28.5,29.58,West,267,0.0,0.0,72,0.00,,SKC,0.00,VWS V14.01,2013-02-14 04:56:00,
2013-02-13 23:00:00,36.7,28.2,29.58,WSW,250,0.0,0.0,71,0.00,,SKC,0.00,VWS V14.01,2013-02-14 05:00:00,
2013-02-13 23:01:00,36.7,28.2,29.58,West,259,0.0,0.0,71,0.00,,SKC,0.00,VWS V14.01,2013-02-14 05:01:00,
2013-02-13 23:06:00,36.7,27.8,29.58,WNW,287,0.0,0.0,70,0.00,,SKC,0.00,VWS V14.01,2013-02-14 05:06:00,
2013-02-13 23:11:00,37.0,27.8,29.58,West,261,0.0,0.0,69,0.00,,SKC,0.00,VWS V14.01,2013-02-14 05:11:00,
2013-02-13 23:16:00,37.0,27.1,29.58,WSW,256,0.0,9.7,67,0.00,,SKC,0.00,VWS V14.01,2013-02-14 05:16:00,
2013-02-13 23:21:00,37.0,26.8,29.61,WNW,287,0.0,4.8,66,0.00,,SKC,0.00,VWS V14.01,2013-02-14 05:21:00,
2013-02-13 23:26:00,37.0,26.4,29.61,West,272,6.4,6.4,65,0.00,,SKC,0.00,VWS V14.01,2013-02-14 05:26:00,
2013-02-13 23:31:00,37.0,26.0,29.61,West,260,0.0,4.0,64,0.00,,SKC,0.00,VWS V14.01,2013-02-14 05:31:00,
2013-02-13 23:36:00,37.0,26.0,29.61,WSW,254,0.0,0.0,64,0.00,,SKC,0.00,VWS V14.01,2013-02-14 05:36:00,
2013-02-13 23:41:00,36.9,26.2,29.61,WSW,252,0.0,0.0,65,0.00,,SKC,0.00,VWS V14.01,2013-02-14 05:41:00,
2013-02-13 23:46:00,36.7,26.0,29.61,WNW,290,0.0,0.0,65,0.00,,SKC,0.00,VWS V14.01,2013-02-14 05:46:00,
2013-02-13 23:51:00,36.5,25.9,29.61,West,268,0.0,8.1,65,0.00,,SKC,0.00,VWS V14.01,2013-02-14 05:51:00,
2013-02-13 23:56:00,36.5,26.2,29.61,West,264,0.0,0.0,66,0.00,,SKC,0.00,VWS V14.01,2013-02-14 05:56:00,